This is the latest recevied weather packets stored in our database for station/object JE6MIQ-13. If no packets are shown the sender has not sent any weather packets the latest 10 day(s).
| Time | Temp. | Humidity | Pressure | Rain* | Wind** | Luminosity | Snow |
|---|---|---|---|---|---|---|---|
| 1777834353 | 15.56° C | 37% | 1008.7 hPa | 0 mm | - | - | - |
| 1777833754 | 15.56° C | 41% | 1008.7 hPa | 0 mm | - | - | - |
| 1777833152 | 15.56° C | 37% | 1008.7 hPa | 0 mm | - | - | - |
| 1777832553 | 15.56° C | 41% | 1008.3 hPa | 0 mm | - | - | - |
| 1777831953 | 15.56° C | 39% | 1008.3 hPa | 0 mm | - | - | - |
| 1777831354 | 15.56° C | 41% | 1008.3 hPa | 0 mm | - | - | - |
| 1777830753 | 15.56° C | 44% | 1008.3 hPa | 0 mm | - | - | - |
| 1777830152 | 15.56° C | 44% | 1008.3 hPa | 0 mm | - | - | - |
| 1777829553 | 15.56° C | 43% | 1008.3 hPa | 0 mm | - | - | - |
| 1777828954 | 15.56° C | 46% | 1008.6 hPa | 0 mm | - | - | - |
| 1777828352 | 15.56° C | 46% | 1008.1 hPa | 0 mm | - | - | - |
| 1777827753 | 15.56° C | 51% | 1008.1 hPa | 0 mm | - | - | - |
| 1777827153 | 15.56° C | 46% | 1008.3 hPa | 0 mm | - | - | - |
| 1777826552 | 15.56° C | 48% | 1008.3 hPa | 0 mm | - | - | - |
| 1777825952 | 15.56° C | 48% | 1008 hPa | 0 mm | - | - | - |
| 1777825353 | 15.56° C | 50% | 1007.7 hPa | 0 mm | - | - | - |
| 1777824752 | 15.56° C | 49% | 1007.6 hPa | 0 mm | - | - | - |
| 1777824153 | 15.56° C | 50% | 1007.6 hPa | 0 mm | - | - | - |
| 1777823553 | 15° C | 52% | 1007.5 hPa | 0 mm | - | - | - |
| 1777822953 | 15° C | 52% | 1007.5 hPa | 0 mm | - | - | - |
| 1777822353 | 15° C | 53% | 1007.4 hPa | 0 mm | - | - | - |
| 1777821754 | 15° C | 53% | 1007.3 hPa | 0 mm | - | - | - |
| 1777821153 | 15° C | 53% | 1007.3 hPa | 0 mm | - | - | - |
| 1777820552 | 15° C | 52% | 1007.2 hPa | 0 mm | - | - | - |
| 1777819953 | 15° C | 57% | 1006.9 hPa | 0 mm | - | - | - |
* Rain latest hour (hover to see other rain measurements)
** Current wind speed in m/s (hover to see current wind gust speed)